FW8019 Weather Reports


time (UTC)temp
F
wind
direction
speed
knots
gust
knots
rain 1hr
in
rain 24hr
in
rain mn
in
humidity
%
barometer
mb
20260503214908 68 193 0.9 1.7 0.00 0.00 0.00 58 1016.5
20260503214405 69 206 1.7 2.6 0.00 0.00 0.00 57 1016.6
20260503213902 69 188 0.9 0.9 0.00 0.00 0.00 58 1016.7
20260503213400 69 195 0.9 0.9 0.00 0.00 0.00 56 1016.8
20260503212856 70 297 0.9 2.6 0.00 0.00 0.00 55 1016.8
20260503212354 69 196 0.9 0.9 0.00 0.00 0.00 56 1016.8
20260503211851 69 204 2.6 2.6 0.00 0.00 0.00 57 1016.9
20260503211348 69 193 0.9 0.9 0.00 0.00 0.00 55 1016.7
20260503210843 69 189 0.0 0.0 0.00 0.00 0.00 56 1016.9
20260503210341 68 185 0.0 0.0 0.00 0.00 0.00 57 1017.0
20260503205835 68 187 0.9 0.9 0.00 0.00 0.00 58 1017.0
20260503205332 68 199 2.6 2.6 0.00 0.00 0.00 55 1016.9
20260503204829 68 195 0.9 0.9 0.00 0.00 0.00 55 1017.0
20260503204326 69 188 0.9 0.9 0.00 0.00 0.00 55 1017.3
20260503203823 68 192 0.0 0.9 0.00 0.00 0.00 56 1017.4
20260503203321 68 196 1.7 1.7 0.00 0.00 0.00 54 1017.2
20260503202817 67 187 0.0 0.9 0.00 0.00 0.00 56 1017.2
20260503202316 67 197 1.7 1.7 0.00 0.00 0.00 57 1017.2
20260503201814 68 184 2.6 2.6 0.00 0.00 0.00 58 1017.2
20260503201310 68 192 1.7 1.7 0.00 0.00 0.00 56 1017.4
20260503200808 68 204 0.9 0.9 0.00 0.00 0.00 56 1017.4
20260503200303 67 193 1.7 1.7 0.00 0.00 0.00 57 1017.6
20260503195801 68 195 0.9 0.9 0.00 0.00 0.00 56 1017.4
20260503195257 68 195 0.9 0.9 0.00 0.00 0.00 56 1017.4
20260503194755 68 195 0.9 0.9 0.00 0.00 0.00 56 1017.5
20260503194250 68 189 0.0 0.9 0.00 0.00 0.00 56 1017.6
20260503193747 67 203 1.7 1.7 0.00 0.00 0.00 57 1017.7
20260503193243 68 206 1.7 1.7 0.00 0.00 0.00 55 1017.7
20260503192739 68 195 1.7 1.7 0.00 0.00 0.00 57 1018.2
20260503192234 69 188 0.9 0.9 0.00 0.00 0.00 55 1018.1
20260503191731 68 194 0.9 0.9 0.00 0.00 0.00 55 1018.2
20260503191228 68 198 0.9 1.7 0.00 0.00 0.00 57 1018.3
20260503190725 68 196 0.0 0.9 0.00 0.00 0.00 57 1018.2
20260503190222 68 190 0.9 1.7 0.00 0.00 0.00 57 1018.3
20260503185719 68 197 0.9 1.7 0.00 0.00 0.00 57 1018.6
20260503185214 67 196 0.9 0.9 0.00 0.00 0.00 58 1018.5
20260503184709 67 195 0.0 0.9 0.00 0.00 0.00 58 1018.5
20260503184206 67 208 1.7 2.6 0.00 0.00 0.00 57 1018.4
20260503183702 68 187 0.9 0.9 0.00 0.00 0.00 57 1018.5
20260503183200 67 197 0.0 0.0 0.00 0.00 0.00 57 1018.6
20260503182658 67 195 0.0 0.9 0.00 0.00 0.00 57 1018.8
20260503182156 67 203 0.9 0.9 0.00 0.00 0.00 57 1018.8
20260503181652 68 203 0.9 0.9 0.00 0.00 0.00 57 1018.8
20260503181149 67 198 0.0 0.0 0.00 0.00 0.00 58 1018.7
20260503180646 67 194 0.9 0.9 0.00 0.00 0.00 58 1018.8
20260503180144 67 195 0.9 0.9 0.00 0.00 0.00 58 1018.9
20260503175641 67 196 0.9 0.9 0.00 0.00 0.00 58 1019.0
20260503175138 68 201 0.9 1.7 0.00 0.00 0.00 55 1018.9
20260503174634 66 197 0.0 0.9 0.00 0.00 0.00 59 1018.8
20260503174132 66 203 2.6 2.6 0.00 0.00 0.00 61 1018.8
20260503173626 66 204 1.7 1.7 0.00 0.00 0.00 58 1018.9
20260503173123 65 200 0.0 0.0 0.00 0.00 0.00 59 1018.9
20260503172620 65 202 0.9 0.9 0.00 0.00 0.00 62 1018.9
20260503172118 66 201 1.7 1.7 0.00 0.00 0.00 62 1019.1
20260503171614 67 200 0.0 0.9 0.00 0.00 0.00 62 1019.2
20260503171111 68 203 0.9 1.7 0.00 0.00 0.00 59 1019.0
20260503170608 68 202 0.0 0.0 0.00 0.00 0.00 60 1019.1
20260503170105 68 198 0.9 0.9 0.00 0.00 0.00 60 1019.0
20260503151000 63 178 1.7 1.7 0.00 0.00 0.00 60 1019.7
20260503150456 63 112 0.9 1.7 0.00 0.00 0.00 64 1019.4
20260503131350 57 126 0.0 0.0 0.00 0.00 0.00 95 1018.8
20260503130847 57 220 0.9 0.9 0.00 0.00 0.00 98 1018.9
20260503130344 56 172 0.0 0.0 0.00 0.00 0.00 99 1019.0
20260503110738 49 163 0.0 0.0 0.00 0.00 0.00 99 1017.7
20260503110235 49 163 0.0 0.0 0.00 0.00 0.00 99 1017.9
20260503100201 49 163 0.0 0.0 0.00 0.00 0.00 99 1017.0
20260503090121 49 167 0.0 0.0 0.00 0.00 0.00 99 1016.2
20260503081556 49 172 0.0 0.0 0.00 0.00 0.00 99 1016.1
20260503081054 49 172 0.0 0.0 0.00 0.00 0.00 99 1016.0
20260503080549 49 172 0.0 0.0 0.00 0.00 0.00 99 1016.1
20260503072523 51 172 0.0 0.0 0.00 0.00 0.00 99 1015.4
20260503072020 51 172 0.0 0.0 0.00 0.00 0.00 99 1015.4
20260503071517 51 172 0.0 0.0 0.00 0.00 0.00 99 1015.5
20260503071014 51 172 0.0 0.0 0.00 0.00 0.00 99 1015.7
20260503070511 51 172 0.0 0.0 0.00 0.00 0.00 99 1015.6
20260503054929 52 159 0.0 0.0 0.00 0.00 0.00 99 1014.9
20260503054425 52 158 0.0 0.0 0.00 0.00 0.00 99 1015.1
20260503053923 52 170 0.0 0.0 0.00 0.00 0.00 99 1015.1
20260503053420 53 167 0.9 0.9 0.00 0.00 0.00 99 1015.3
20260503052916 53 93 0.9 0.9 0.00 0.00 0.00 99 1015.2
20260503052414 53 153 0.0 0.9 0.00 0.00 0.00 99 1015.0
20260503051910 53 139 0.9 0.9 0.00 0.00 0.00 99 1015.4
20260503051406 53 66 1.7 1.7 0.00 0.00 0.00 99 1015.0
20260503050904 53 169 0.9 0.9 0.00 0.00 0.00 99 1015.2
20260503050359 53 117 0.0 0.9 0.00 0.00 0.00 99 1015.0
20260503045857 53 161 0.0 0.0 0.00 0.00 0.00 99 1015.1
20260503045354 53 160 0.0 0.0 0.00 0.00 0.00 99 1015.0
20260503044851 53 124 0.9 0.9 0.00 0.00 0.00 99 1014.9
20260503044348 53 93 0.9 0.9 0.00 0.00 0.00 99 1014.6
20260503043845 53 155 0.0 0.9 0.00 0.00 0.00 99 1014.6
20260503043342 54 158 0.0 0.0 0.00 0.00 0.00 99 1014.8
20260503042838 54 326 0.9 1.7 0.00 0.00 0.00 99 1014.4
20260503042335 54 160 0.0 0.0 0.00 0.00 0.00 99 1014.8
20260503041831 54 159 0.0 0.0 0.00 0.00 0.00 99 1014.8
20260503041328 54 137 0.9 0.9 0.00 0.00 0.00 99 1014.7
20260503040826 54 175 0.0 0.0 0.00 0.00 0.00 99 1014.4
20260503040324 54 175 0.0 0.0 0.00 0.00 0.00 99 1014.5
20260503035820 54 160 0.0 0.0 0.00 1.54 1.54 99 1014.2
20260503035317 54 160 0.0 0.0 0.00 1.54 1.54 99 1014.5
20260503034814 54 171 0.0 0.0 0.00 1.54 1.54 99 1014.4
20260503034312 55 161 0.0 0.0 0.00 1.54 1.54 99 1014.2
20260503033809 55 148 0.9 1.7 0.00 1.54 1.54 99 1014.1
20260503033306 55 160 0.0 0.0 0.00 1.54 1.54 99 1014.1
20260503032804 55 146 0.9 0.9 0.00 1.54 1.54 99 1013.8
20260503032304 55 147 0.0 0.0 0.00 1.54 1.54 99 1013.8
20260503031759 55 176 0.9 0.9 0.00 1.54 1.54 99 1014.0
20260503031258 55 155 0.0 0.0 0.00 1.54 1.54 99 1013.7
20260503030754 55 168 0.0 0.0 0.00 1.54 1.54 99 1013.9
20260503030250 55 157 0.0 0.0 0.00 1.54 1.54 99 1013.8
20260503025747 55 169 0.0 0.0 0.00 1.54 1.54 99 1013.7
20260503025244 55 167 0.0 0.0 0.00 1.54 1.54 99 1013.5
20260503024741 55 151 0.0 0.9 0.00 1.54 1.54 99 1013.5
20260503024238 55 172 0.9 1.7 0.00 1.54 1.54 99 1013.6
20260503023735 55 164 0.0 0.0 0.00 1.54 1.54 99 1013.6
20260503023232 55 125 0.0 0.0 0.00 1.54 1.54 99 1013.5
20260503022728 55 171 0.0 0.0 0.00 1.54 1.54 99 1013.2
20260503022228 55 172 0.0 0.9 0.00 1.54 1.54 99 1013.1
20260503021725 55 157 0.0 0.0 0.00 1.54 1.54 99 1013.1
20260503021221 55 166 0.9 0.9 0.00 1.54 1.54 99 1013.0
20260503020719 55 123 0.9 0.9 0.00 1.54 1.54 99 1013.0
20260503020216 55 163 0.0 0.0 0.00 1.54 1.54 99 1012.7
20260503015713 55 169 0.0 0.0 0.00 1.54 1.54 99 1012.9
20260503015210 55 201 0.0 0.0 0.00 1.54 1.54 99 1012.9
20260503014705 55 127 0.9 0.9 0.00 1.54 1.54 99 1012.5
20260503014204 55 140 0.0 0.0 0.00 1.54 1.54 99 1012.4
20260503013701 55 151 0.0 0.9 0.00 1.54 1.54 99 1012.3
20260503013158 55 107 0.9 1.7 0.00 1.54 1.54 99 1012.4
20260503012655 55 136 0.9 0.9 0.00 1.54 1.54 99 1012.4
20260503012152 55 161 0.0 0.0 0.00 1.54 1.54 99 1012.5
20260503011648 55 161 0.0 0.0 0.00 1.54 1.54 99 1012.5
20260503011146 55 167 0.0 0.9 0.00 1.54 1.54 99 1012.7
20260503010642 55 156 0.0 0.0 0.00 1.54 1.54 99 1012.5
20260503010139 55 164 0.0 0.0 0.00 1.54 1.54 99 1012.5
20260503005636 55 125 0.0 0.0 0.00 1.54 1.54 99 1012.3
20260503005134 55 165 0.0 0.0 0.00 1.54 1.54 99 1012.3
20260503004630 55 148 0.0 0.9 0.00 1.54 1.54 99 1012.3
20260503004128 55 148 0.0 0.9 0.00 1.54 1.54 99 1012.3
20260503003625 55 193 0.9 1.7 0.00 1.54 1.54 99 1012.2
20260503003122 55 166 0.0 0.9 0.00 1.54 1.54 99 1011.6
20260503002619 55 177 0.0 0.9 0.00 1.54 1.54 99 1012.0
20260503002115 55 158 0.9 0.9 0.00 0.92 0.92 99 1011.7
20260503001611 55 151 1.7 1.7 0.00 0.92 0.92 99 1011.4
20260503001109 56 83 2.6 4.3 0.00 0.92 0.92 99 1011.7
20260503000606 56 163 0.0 0.0 0.00 0.92 0.92 99 1011.6
20260503000103 56 172 0.0 0.0 0.00 0.92 0.92 99 1011.7
20260502235600 56 118 0.0 0.0 0.00 0.92 0.92 99 1011.6
20260502235058 56 165 0.0 0.9 0.00 0.92 0.92 99 1011.5
20260502234553 56 43 1.7 2.6 0.00 0.92 0.92 99 1011.4
20260502234052 56 44 0.0 1.7 0.00 0.92 0.92 99 1011.3
20260502233551 56 174 0.0 0.0 0.00 0.92 0.92 99 1011.3
20260502233049 56 127 0.9 0.9 0.00 0.92 0.92 99 1011.2
20260502232545 56 173 0.0 0.9 0.00 0.92 0.92 99 1010.9
20260502232042 56 175 0.0 0.0 0.00 0.92 0.92 99 1010.8
20260502231539 56 158 1.7 1.7 0.00 0.92 0.92 99 1010.7
20260502231037 56 96 0.9 1.7 0.00 0.92 0.92 99 1010.5
20260502230535 56 165 0.0 0.0 0.00 0.92 0.92 99 1010.8
20260502230033 56 176 0.0 0.9 0.00 0.92 0.92 99 1010.6
20260502225528 57 146 0.9 0.9 0.00 0.92 0.92 99 1010.6
20260502225026 57 81 4.3 5.2 0.00 0.92 0.92 99 1010.7
20260502224522 57 149 1.7 2.6 0.00 0.92 0.92 99 1010.6
20260502224019 57 161 0.9 0.9 0.00 0.92 0.92 99 1010.7
20260502223517 57 181 0.0 0.9 0.00 0.92 0.92 99 1010.8
20260502223015 57 81 0.9 1.7 0.00 0.92 0.92 99 1010.9
20260502222512 57 165 0.9 0.9 0.05 0.92 0.92 99 1010.8
20260502222008 57 108 0.9 1.7 0.05 0.92 0.92 99 1010.6
20260502221504 57 342 2.6 4.3 0.00 0.91 0.91 99 1010.5
20260502221002 57 173 0.9 0.9 0.00 0.91 0.91 99 1010.6
20260502220456 57 117 1.7 2.6 0.00 0.91 0.91 99 1010.5
20260502215954 57 171 0.0 0.9 0.00 0.91 0.91 99 1010.5
20260502215451 57 161 0.0 0.0 0.00 0.91 0.91 99 1010.2